Location: Casteau
(50.5142°N, 4.0161°E)
Time: 01:10:24
(UTC+00:00)

Explorer 11/Cluster Stage 4 - Pass Details

Date: 01 August 2021
Orbit: 467 x 1257 km, 28.8° (Epoch: 18 September)

Event Time Altitude Azimuth Distance (km) Brightness Sun altitude
Rises 09:51:20 0° 225° (SW) 4,168 10.3 49.7°
Reaches altitude 10° 09:56:03 10° 202° (SSW) 3,225 10.1 50.2°
Maximum altitude 09:59:43 14° 175° (S) 2,930 10.2 50.6°
Drops below altitude 10° 10:03:19 10° 148° (SSE) 3,161 10.5 51.0°
Sets 10:07:50 0° 125° (SE) 4,022 10.8 51.5°
